Temp
14 14 14 14 13 14 14 13 13 13 13 12 12 12 12 11 11 11 11 11 11 11 11 11 11 11 10 10 10 11 11 11 10 10 9 9 9 9 8 8 8 8 8 8 8 8 8 8 8 7 7 7 7 6 6 6 6 6 6 6 6 6 6 6 6 6 5 6 6 6 6 6 6 6 6 6 5 5 5 4 4 5 5 5 5
14 14 14 14 14 14 14 13 13 13 12 12 12 12 11 11 11 10 10 11 11 10 10 10 10 10 10 10 10 10 10 10 10 9 9 9 9 8 8 8 8 8 8 8 7 7 8 8 7 7 6 7 6 6 6 6 6 6 6 6 6 6 6 6 6 6 6 5 5 5 6 6 6 6 6 5 5 5 4 4 4 4 4 4 4
14 14 14 14 14 13 13 13 13 13 12 12 12 11 11 11 11 10 10 10 10 10 10 10 10 9 9 9 10 10 10 10 9 9 8 8 9 8 8 8 8 8 8 7 7 7 7 7 7 6 6 6 6 6 5 5 5 5 5 5 6 6 6 6 6 6 6 5 5 5 5 5 5 5 5 5 5 5 5 4 4 4 4 4 4
14 14 14 14 14 13 13 13 13 12 12 12 11 11 11 11 10 10 10 10 10 10 10 10 9 9 9 9 9 9 9 9 9 8 8 8 8 8 8 7 8 8 8 7 7 7 7 7 6 6 6 6 6 5 5 5 5 5 5 5 5 6 6 6 6 6 5 5 5 5 5 5 5 5 5 5 5 5 5 5 5 4 4 4 4
14 14 13 13 13 13 13 13 12 12 12 12 11 11 11 11 10 10 10 10 10 10 10 9 9 9 8 8 9 9 9 9 8 8 8 8 8 8 8 8 8 8 8 7 7 6 7 6 5 5 5 6 6 5 5 4 4 4 4 5 5 5 6 6 6 6 5 5 4 4 4 4 5 5 5 5 5 5 5 5 5 5 4 4 4
13 13 13 13 13 13 13 12 12 12 12 11 11 11 10 10 10 10 9 10 10 10 10 9 9 8 8 8 8 9 8 8 8 8 8 8 8 8 8 7 8 8 8 7 7 6 6 5 5 5 5 5 5 5 4 4 4 4 4 4 5 5 5 5 5 5 5 5 4 4 4 4 4 4 4 5 5 5 5 5 5 5 4 4 4
13 13 13 13 13 13 13 12 12 12 11 11 11 10 10 10 10 10 9 10 10 10 9 9 9 8 8 8 8 8 8 8 8 8 8 8 7 7 7 8 8 8 8 7 6 6 5 5 5 4 4 4 4 4 4 4 4 4 4 4 4 5 5 5 5 5 5 5 5 4 4 4 4 4 4 4 5 5 5 5 5 5 4 4 4
13 13 13 13 13 12 12 12 12 11 11 11 10 10 10 10 9 9 9 10 10 9 9 9 8 8 8 8 8 8 8 8 8 8 8 8 7 7 8 8 8 8 8 7 6 5 5 5 4 4 4 4 4 4 4 3 3 3 3 4 4 4 4 4 4 5 5 5 4 4 4 4 4 4 4 4 5 5 5 4 4 4 3 3 3
12 12 12 12 12 12 12 12 11 11 11 10 10 10 10 10 9 9 9 10 9 9 9 8 8 8 8 8 8 8 8 8 7 8 8 7 7 7 8 8 8 7 7 7 6 5 5 5 4 4 3 3 3 3 3 3 3 3 3 4 4 4 3 3 4 4 5 5 4 4 4 3 3 4 4 4 4 4 4 5 4 4 3 3 3
12 12 12 12 12 12 12 12 11 11 10 10 10 10 10 9 9 9 9 9 9 9 8 8 8 8 8 8 8 8 8 8 8 8 8 7 7 8 8 8 7 7 7 6 6 5 5 5 5 4 3 3 3 3 3 3 3 3 3 3 4 3 3 3 3 3 4 4 4 4 3 3 3 3 3 3 3 4 4 4 4 4 4 4 3
12 12 11 12 12 12 12 11 11 11 10 10 10 10 9 9 9 9 9 9 9 8 8 8 8 8 8 8 8 8 8 8 8 8 8 7 7 8 8 8 7 7 6 6 6 5 5 4 4 4 3 3 3 3 3 3 3 3 3 3 3 3 3 3 3 3 3 3 3 3 3 3 3 3 3 3 3 3 3 4 4 4 4 3 3
12 12 11 12 12 12 12 11 11 10 10 10 10 10 9 9 9 9 9 9 8 8 8 8 8 8 8 8 8 8 8 8 8 8 8 7 8 8 8 8 7 7 6 6 6 5 5 4 4 4 3 3 3 3 2 3 3 3 3 3 3 3 3 3 3 3 3 3 3 3 2 2 2 3 3 3 3 3 3 3 3 3 3 2 2
12 12 11 11 12 12 12 11 11 10 10 9 9 9 9 9 9 9 9 8 8 8 8 8 8 8 8 8 8 8 8 8 8 8 8 8 8 8 8 8 7 7 7 6 6 5 5 4 4 4 3 3 3 3 3 3 3 3 3 3 3 3 2 2 2 2 2 2 2 2 2 2 2 2 2 2 3 3 3 3 3 3 2 2 2
12 12 11 11 12 12 12 11 11 10 10 9 9 9 8 8 8 8 8 8 8 8 8 8 8 8 8 8 8 8 8 8 8 8 8 8 8 8 8 7 7 7 7 6 6 6 5 4 4 4 3 3 3 3 3 3 3 3 3 3 3 3 2 2 2 2 2 2 2 2 2 2 1 1 2 2 2 3 3 3 3 3 3 2 2
12 12 12 12 12 12 11 11 11 10 10 9 9 8 8 8 8 8 7 8 8 8 8 8 8 8 8 8 8 8 8 8 8 8 8 8 8 8 7 7 7 7 7 7 6 6 5 5 4 4 3 3 3 3 3 3 3 3 3 3 3 3 2 2 2 2 2 2 2 2 2 2 2 2 2 2 2 2 2 3 3 3 3 3 3
12 12 12 11 12 11 11 11 10 10 9 9 8 8 7 7 7 7 7 7 7 7 8 8 8 8 8 8 8 8 8 8 8 8 8 7 8 8 7 7 7 7 7 7 6 6 6 5 4 4 3 3 3 3 3 3 3 3 3 3 3 3 3 3 3 2 2 2 2 2 2 2 2 2 2 2 2 2 3 3 3 4 4 4 3
12 12 12 11 11 11 11 10 10 9 8 8 8 8 7 7 7 7 7 7 7 7 8 8 7 7 8 8 8 8 8 8 8 8 7 7 7 7 7 7 7 7 7 7 6 6 6 6 4 4 3 3 3 3 3 3 3 3 3 3 3 3 3 3 2 3 2 2 2 2 2 2 2 2 2 2 2 2 3 3 3 3 4 3 3
12 12 11 11 11 11 11 10 9 9 9 8 8 8 7 7 7 7 7 7 7 7 7 7 7 7 7 8 8 8 8 8 8 7 7 7 7 7 7 7 7 7 7 7 7 6 6 6 5 4 3 4 4 3 3 3 3 3 3 3 3 3 3 2 2 3 3 2 2 2 2 2 2 2 2 2 2 2 2 2 2 2 2 2 2
12 12 11 11 11 11 10 10 9 9 10 10 9 8 8 7 7 7 7 7 7 7 7 7 7 7 7 7 8 8 7 8 8 7 7 7 6 6 7 7 7 7 7 7 7 6 6 6 5 4 4 4 4 3 3 3 3 3 3 3 3 3 2 2 3 3 2 2 3 2 2 2 2 2 2 2 2 2 2 2 1 1 1 1 1
12 12 11 11 11 11 10 10 9 9 10 9 8 8 7 7 7 7 7 7 7 7 7 7 7 7 7 7 7 7 7 7 8 7 6 6 6 6 6 6 6 7 7 7 7 6 6 6 5 5 4 4 3 3 3 3 3 3 3 3 3 3 2 2 3 3 3 3 3 3 3 3 2 2 2 2 2 2 2 2 2 1 1 1 1
12 12 11 11 11 10 10 9 8 8 8 8 7 7 7 7 7 7 7 7 6 6 6 7 7 7 7 7 7 7 7 7 7 7 6 6 6 6 6 6 6 6 6 6 6 6 6 6 5 5 5 4 4 3 3 3 3 3 3 4 3 3 2 2 3 3 3 3 3 3 3 3 3 3 2 2 2 2 2 2 2 1 1 1 1
13 12 12 11 10 10 9 8 8 8 9 8 7 7 7 7 7 7 7 7 6 6 6 6 6 7 7 7 7 6 6 6 6 6 6 6 6 6 6 6 6 6 6 6 6 6 6 5 5 5 5 5 4 4 4 4 3 3 4 4 3 3 2 3 3 3 3 3 3 3 3 3 3 3 3 2 2 2 2 2 2 1 1 1 0
12 12 12 11 10 9 9 8 8 9 9 8 7 7 7 7 7 6 6 6 6 6 6 6 6 6 7 7 6 6 6 5 5 5 6 5 5 5 6 6 6 6 6 6 6 6 6 5 5 5 5 5 5 4 4 4 4 4 4 4 4 3 3 3 3 3 3 3 3 3 3 3 3 3 3 3 2 2 2 2 2 1 1 1 0
11 11 11 10 10 9 8 8 8 9 9 7 7 7 6 6 6 6 6 6 6 6 6 6 6 6 7 7 6 6 5 5 5 4 5 5 5 5 5 5 5 5 6 6 5 5 5 5 5 5 5 5 5 5 5 4 4 4 4 4 4 3 3 3 3 3 3 3 3 3 3 3 3 3 3 2 2 2 2 2 2 1 1 1 1
10 10 10 10 10 9 8 7 9 9 8 7 7 7 6 6 6 6 6 6 6 6 6 6 6 6 7 7 6 6 5 5 4 4 4 4 4 5 5 5 5 5 5 5 5 5 5 5 5 5 5 5 5 5 5 5 4 4 4 4 4 3 3 4 4 4 4 3 3 3 3 3 3 2 2 2 2 2 2 2 2 2 1 1 1
10 10 10 10 9 8 7 8 8 8 7 6 7 7 6 6 6 6 6 6 6 6 6 6 6 6 6 6 6 6 5 5 5 4 4 4 4 4 5 5 5 5 5 5 5 5 5 5 5 5 4 4 5 4 4 4 4 4 4 4 4 3 3 4 4 4 4 4 4 3 3 3 3 3 2 2 2 2 2 2 2 2 2 1 1
10 10 10 10 9 8 8 8 8 7 6 6 7 6 6 6 7 7 6 6 6 6 5 6 6 6 7 6 6 6 5 5 5 4 4 4 4 4 5 5 5 5 5 5 5 4 5 5 5 5 4 4 4 4 4 4 4 4 4 4 4 3 4 4 4 4 4 4 3 3 3 3 3 3 3 2 2 2 2 2 2 2 2 2 2
10 10 9 9 8 8 8 8 8 7 6 6 7 6 6 6 7 7 6 6 6 6 6 6 7 7 7 7 6 5 5 5 5 5 5 5 5 5 5 5 5 5 5 5 4 4 4 4 5 5 4 4 4 4 4 4 4 4 4 4 4 4 4 4 4 4 4 4 3 3 3 3 3 3 3 3 2 2 2 2 2 2 2 2 2
10 9 9 9 8 8 8 9 8 7 7 7 7 6 7 7 7 7 6 6 6 6 6 7 7 7 7 7 7 6 6 6 6 6 5 5 5 5 5 5 5 4 4 4 4 4 4 4 4 4 4 4 4 4 4 4 4 4 4 4 4 4 4 4 4 4 4 4 3 3 3 3 3 3 3 3 3 3 2 2 2 2 2 2 2
9 9 8 8 8 8 8 9 8 7 7 7 7 6 6 6 6 6 6 6 5 5 5 6 7 7 7 7 7 7 7 6 6 5 5 5 5 4 4 4 4 4 4 4 4 4 4 4 4 4 4 4 4 4 4 4 4 4 4 4 4 4 4 4 4 4 4 4 3 3 3 3 3 3 3 3 3 3 3 2 2 2 2 2 2
9 9 8 8 8 8 8 8 8 7 7 7 7 6 6 6 6 6 6 5 5 5 5 6 6 6 6 6 6 6 6 5 5 5 5 5 5 4 4 4 4 4 4 4 4 4 4 4 4 4 4 4 4 4 4 4 4 4 4 4 4 4 4 4 4 4 4 4 3 3 3 3 3 3 3 3 3 2 2 2 2 2 2 2 2
9 9 8 8 8 8 7 7 7 7 7 7 6 6 6 6 6 6 6 5 5 5 5 6 6 6 6 5 6 6 6 5 5 5 5 5 4 4 4 3 3 3 4 4 4 4 4 4 4 4 4 4 4 4 4 4 4 4 4 4 4 4 4 4 4 4 4 4 4 4 3 3 3 3 3 3 3 2 2 2 2 2 2 2 2
9 8 8 8 8 7 7 7 7 7 7 7 7 6 6 6 6 6 6 5 5 5 5 5 6 6 5 5 5 5 5 5 5 5 5 5 4 4 4 3 3 3 3 4 4 3 3 4 4 4 4 3 3 3 4 4 4 4 4 4 4 4 4 4 4 4 3 4 4 4 4 3 3 3 3 3 3 3 3 2 2 2 2 2 2
9 8 8 8 8 7 7 7 7 7 7 7 7 7 6 6 6 7 6 6 6 5 5 5 5 5 5 5 5 5 4 4 4 5 5 5 4 4 4 3 3 3 3 3 3 3 3 3 4 4 3 3 3 3 4 4 4 4 4 4 4 4 4 4 3 3 3 3 3 4 4 3 3 3 3 3 3 3 3 3 2 2 2 2 2
9 8 7 7 8 8 8 7 7 7 7 7 8 8 7 6 6 7 6 6 6 6 6 6 6 5 5 5 5 4 4 4 4 4 4 4 4 4 4 3 3 3 3 3 3 3 3 3 3 3 3 3 3 3 4 4 4 4 4 4 4 4 4 4 3 3 3 3 3 3 3 3 3 3 3 3 3 3 3 3 3 2 2 2 2
9 8 7 7 7 8 8 8 7 7 7 7 8 7 7 6 6 7 6 6 5 6 6 6 6 5 5 5 4 4 4 4 4 4 4 4 4 4 4 4 4 4 3 3 3 3 3 3 3 3 3 3 3 3 3 4 4 4 4 4 4 4 4 4 3 3 3 3 3 3 3 3 3 3 3 3 3 3 3 3 2 2 2 2 2
9 8 8 7 7 7 7 7 7 7 7 7 7 7 6 6 6 6 6 6 5 5 5 6 6 5 5 5 4 4 4 4 4 3 3 3 3 3 3 3 3 3 3 3 3 3 3 3 3 3 3 3 3 3 3 3 3 3 4 4 4 4 4 3 3 3 3 3 3 3 3 3 3 3 3 3 3 3 3 2 2 2 2 2 2
8 8 8 8 8 8 7 7 7 7 7 7 7 7 6 6 6 6 5 5 5 5 5 5 5 5 5 5 4 4 4 4 3 3 3 3 2 2 2 3 3 3 3 3 3 3 3 3 3 3 3 3 3 3 3 3 3 3 3 3 3 3 3 3 3 3 3 3 3 3 3 3 3 3 3 3 3 3 2 2 2 2 2 2 2
8 8 8 8 8 7 7 7 7 7 7 6 6 6 6 6 6 6 5 5 5 5 5 5 5 5 5 5 4 4 4 4 4 4 3 3 3 3 3 3 3 3 3 3 3 3 3 3 3 3 3 2 2 2 2 3 3 3 3 3 3 3 3 3 3 3 3 3 3 3 3 3 3 3 3 3 3 2 2 2 2 2 2 2 2
8 8 8 7 7 7 7 7 7 7 6 6 6 5 5 5 5 5 5 5 5 5 5 5 5 5 5 5 5 5 5 5 5 5 4 4 4 4 4 4 4 3 3 3 3 3 3 3 3 3 2 2 2 2 2 2 2 2 2 2 2 3 3 2 2 2 2 3 2 2 2 2 2 2 2 2 2 2 2 2 2 2 2 2 2
8 8 8 7 7 7 7 7 6 6 6 5 5 5 5 5 5 5 5 5 4 5 5 5 5 5 5 5 5 5 5 5 5 5 5 5 4 4 4 4 4 4 4 4 3 3 3 3 3 2 2 2 2 2 2 2 2 2 2 2 2 2 2 2 2 2 2 2 2 2 2 2 2 2 2 2 2 2 2 2 2 2 2 1 1
8 8 7 7 7 7 6 6 6 6 5 5 5 5 5 4 4 5 4 4 4 4 5 5 5 5 5 5 5 5 5 5 5 4 4 4 4 4 4 4 4 4 4 4 3 3 2 2 2 2 2 2 2 2 2 2 2 2 2 2 2 2 2 2 2 2 2 2 2 2 2 2 2 2 2 2 2 2 2 2 1 1 1 1 1
7 7 7 7 7 7 6 6 6 6 5 5 4 4 4 4 4 4 4 4 4 4 5 5 5 5 5 5 5 5 5 5 4 4 4 4 4 4 4 4 4 4 4 3 3 3 2 2 2 2 2 2 2 2 2 2 2 2 2 2 2 2 2 2 2 2 2 2 2 2 2 2 2 2 1 1 1 1 1 1 1 1 1 1 1
7 7 7 7 7 6 6 6 5 5 5 5 4 4 4 4 3 3 3 4 4 4 4 4 4 4 4 4 4 4 4 4 4 4 4 4 4 4 4 3 3 3 3 3 3 3 2 2 2 2 2 2 2 2 2 2 2 2 2 2 2 2 2 2 2 2 2 2 2 2 2 2 2 2 1 1 1 1 1 1 1 1 1 1 1
6 6 6 7 6 6 6 5 5 5 5 5 4 4 4 3 3 3 3 4 4 4 4 4 4 4 4 4 4 4 4 4 4 4 4 3 3 3 3 3 3 3 3 3 3 3 2 2 2 2 2 2 2 2 2 2 2 2 2 2 2 2 2 2 2 2 2 2 2 2 2 2 2 1 1 1 1 1 1 1 1 1 1 1 1
6 6 6 6 6 6 5 5 5 5 5 4 4 4 3 3 3 3 3 3 3 3 3 3 3 3 3 3 3 3 3 3 3 3 3 3 3 3 3 3 3 3 3 3 3 3 2 2 2 2 2 2 2 2 2 2 2 2 2 2 2 2 2 2 2 2 2 2 2 2 2 2 2 1 1 1 1 1 1 1 1 1 1 1 1
5 5 5 5 5 5 5 5 4 4 4 4 3 3 3 3 3 3 3 3 3 3 3 3 3 3 3 3 3 3 3 3 3 3 3 3 3 3 3 3 3 3 3 3 3 3 2 2 2 2 2 2 2 2 2 2 2 2 2 2 2 2 2 2 2 2 2 2 2 2 2 2 2 2 1 1 1 1 1 1 1 1 1 1 1
5 5 5 5 5 5 5 4 4 4 3 3 3 2 2 2 2 2 2 2 2 2 2 3 3 3 3 3 3 3 3 3 3 3 3 3 3 3 3 3 3 3 3 3 3 3 3 3 2 2 2 2 2 2 2 2 2 2 2 2 2 2 2 3 3 3 3 2 2 2 2 2 2 2 2 2 1 1 1 1 1 1 1 1 1
5 4 4 4 4 4 4 4 4 3 3 2 2 2 2 2 2 1 1 2 2 2 2 3 3 3 3 3 3 3 3 3 3 3 3 3 3 3 3 3 3 3 3 3 3 3 3 2 2 2 2 2 2 2 2 3 3 3 3 3 3 3 3 3 3 3 3 3 2 2 2 2 2 2 2 2 2 2 2 2 2 2 2 1 1
4 4 4 4 4 3 3 3 3 2 2 2 2 1 1 1 1 1 1 1 2 2 2 2 2 2 2 2 3 3 3 3 3 3 3 3 3 3 3 3 3 3 3 3 3 3 3 2 2 2 2 2 2 2 2 3 3 3 3 3 3 3 3 3 3 3 3 3 3 3 3 3 3 2 2 2 2 2 2 2 2 2 2 2 2
3 3 3 3 3 3 2 2 2 1 1 1 1 1 1 1 1 1 1 1 2 2 2 2 2 2 2 2 3 3 3 3 3 3 3 3 3 3 3 3 3 3 3 3 3 3 3 3 3 3 3 3 3 3 3 3 3 3 3 3 3 3 3 3 3 3 3 3 3 3 3 3 3 3 3 3 3 3 2 2 2 2 2 2 2
Height
1515 1517 1519 1521 1523 1526 1529 1531 1534 1536 1538 1540 1541 1542 1542 1542 1542 1543 1544 1544 1545 1545 1546 1546 1547 1547 1548 1548 1549 1549 1549 1550 1549 1550 1550 1549 1549 1549 1548 1548 1547 1547 1546 1546 1545 1544 1543 1542 1541 1541 1540 1539 1538 1537 1537 1536 1536 1535 1534 1533 1531 1529 1528 1526 1524 1523 1522 1521 1518 1515 1513 1510 1507 1504 1501 1499 1496 1494 1491 1489 1487 1485 1483 1481 1479
1513 1516 1518 1520 1523 1525 1528 1530 1532 1535 1537 1538 1539 1540 1540 1541 1541 1542 1543 1544 1545 1545 1546 1546 1547 1548 1548 1549 1549 1549 1550 1550 1550 1550 1550 1550 1550 1549 1549 1548 1548 1547 1547 1546 1545 1545 1545 1544 1543 1542 1542 1541 1540 1539 1538 1538 1537 1536 1535 1534 1532 1531 1529 1527 1526 1524 1523 1522 1519 1517 1514 1511 1508 1505 1502 1500 1498 1496 1493 1491 1488 1486 1484 1482 1480
1512 1515 1517 1520 1522 1524 1527 1529 1531 1533 1535 1537 1538 1538 1539 1540 1540 1541 1542 1543 1544 1545 1546 1546 1547 1548 1548 1549 1550 1550 1550 1551 1551 1551 1551 1550 1550 1549 1549 1548 1548 1548 1547 1546 1546 1546 1546 1545 1544 1543 1543 1542 1541 1540 1540 1539 1539 1538 1537 1535 1534 1532 1531 1529 1527 1525 1524 1522 1520 1517 1515 1513 1510 1508 1505 1503 1500 1498 1495 1492 1490 1487 1485 1483 1481
1511 1514 1516 1519 1521 1523 1525 1528 1530 1532 1534 1535 1536 1537 1537 1538 1539 1540 1541 1543 1544 1545 1546 1547 1547 1548 1548 1549 1550 1550 1551 1551 1551 1551 1551 1551 1550 1550 1549 1549 1548 1548 1547 1547 1547 1547 1547 1546 1545 1545 1544 1543 1542 1542 1541 1541 1540 1540 1538 1537 1536 1534 1532 1531 1529 1528 1526 1524 1521 1519 1517 1515 1513 1511 1509 1506 1503 1500 1498 1495 1492 1490 1487 1485 1482
1510 1512 1515 1517 1519 1522 1524 1526 1528 1530 1532 1533 1534 1535 1536 1537 1538 1539 1540 1542 1543 1545 1546 1547 1548 1548 1549 1549 1550 1550 1551 1551 1552 1552 1552 1551 1551 1550 1550 1549 1549 1548 1548 1548 1548 1548 1547 1547 1546 1546 1546 1544 1544 1543 1543 1543 1542 1541 1540 1539 1538 1536 1534 1533 1531 1530 1527 1525 1523 1522 1520 1517 1515 1513 1511 1508 1506 1503 1500 1498 1495 1492 1489 1487 1484
1509 1511 1514 1516 1518 1521 1523 1525 1527 1529 1530 1532 1533 1534 1535 1536 1537 1538 1539 1541 1543 1544 1546 1547 1548 1548 1549 1549 1550 1551 1551 1552 1552 1552 1552 1552 1551 1551 1550 1550 1549 1549 1548 1548 1548 1549 1548 1548 1547 1547 1546 1546 1545 1545 1545 1544 1544 1543 1542 1541 1539 1538 1536 1535 1533 1531 1529 1526 1525 1523 1521 1518 1516 1514 1511 1509 1507 1504 1502 1499 1497 1494 1491 1489 1486
1508 1510 1513 1515 1517 1519 1521 1523 1525 1527 1529 1530 1531 1533 1534 1535 1536 1537 1538 1540 1542 1544 1545 1547 1548 1548 1549 1550 1550 1551 1551 1552 1552 1552 1552 1552 1551 1551 1551 1550 1550 1549 1549 1549 1549 1549 1549 1549 1548 1548 1547 1547 1547 1547 1546 1546 1545 1544 1543 1542 1541 1539 1538 1536 1535 1533 1530 1528 1526 1524 1522 1520 1518 1516 1515 1513 1509 1506 1503 1500 1498 1495 1493 1491 1489
1506 1509 1511 1514 1516 1518 1520 1522 1524 1525 1527 1528 1530 1531 1532 1533 1534 1536 1538 1539 1541 1543 1545 1546 1547 1548 1549 1550 1550 1551 1551 1552 1552 1552 1552 1552 1551 1551 1551 1551 1550 1550 1550 1550 1550 1550 1550 1549 1549 1549 1549 1549 1549 1548 1548 1547 1546 1545 1544 1543 1542 1540 1539 1538 1536 1534 1532 1529 1527 1526 1524 1522 1520 1518 1516 1513 1509 1506 1504 1502 1500 1498 1496 1493 1491
1505 1507 1510 1512 1515 1517 1518 1520 1522 1524 1525 1527 1528 1530 1531 1532 1533 1535 1537 1539 1541 1542 1544 1545 1547 1548 1549 1549 1550 1551 1551 1552 1552 1552 1552 1552 1551 1551 1551 1551 1551 1551 1551 1550 1550 1550 1550 1550 1550 1550 1550 1550 1550 1550 1549 1549 1548 1546 1545 1544 1543 1541 1540 1539 1537 1535 1533 1531 1529 1527 1525 1523 1521 1518 1516 1513 1511 1510 1509 1507 1504 1502 1499 1497 1494
1503 1505 1508 1511 1513 1515 1517 1518 1520 1522 1524 1525 1527 1528 1529 1531 1532 1534 1536 1538 1540 1542 1543 1545 1546 1547 1548 1549 1549 1550 1551 1551 1552 1552 1552 1552 1551 1552 1552 1551 1551 1551 1551 1551 1551 1551 1551 1551 1551 1551 1551 1551 1551 1551 1551 1550 1549 1548 1547 1545 1544 1542 1541 1540 1538 1536 1534 1532 1530 1529 1527 1524 1523 1521 1519 1517 1516 1514 1512 1509 1506 1504 1502 1499 1496
1501 1504 1506 1509 1512 1514 1515 1517 1519 1521 1522 1524 1525 1527 1528 1530 1532 1534 1536 1538 1539 1541 1542 1544 1545 1547 1547 1548 1549 1550 1550 1551 1551 1551 1552 1551 1552 1552 1552 1552 1552 1552 1552 1552 1552 1552 1552 1552 1552 1552 1552 1552 1552 1552 1552 1552 1551 1549 1548 1546 1545 1544 1543 1541 1540 1538 1536 1534 1533 1531 1529 1527 1527 1525 1523 1521 1519 1516 1514 1511 1509 1506 1503 1500 1497
1500 1502 1506 1508 1510 1512 1514 1516 1518 1519 1521 1522 1524 1526 1527 1529 1531 1533 1535 1536 1538 1540 1542 1543 1545 1546 1547 1547 1548 1549 1550 1550 1551 1551 1551 1551 1552 1552 1552 1552 1552 1552 1552 1552 1552 1552 1552 1553 1553 1553 1553 1553 1553 1554 1553 1553 1552 1551 1549 1548 1546 1545 1544 1543 1542 1540 1539 1537 1535 1533 1532 1531 1529 1527 1526 1524 1522 1520 1517 1514 1511 1508 1505 1503 1501
1499 1502 1505 1507 1509 1511 1512 1514 1516 1518 1519 1521 1523 1524 1526 1528 1530 1532 1534 1536 1538 1540 1541 1543 1544 1545 1546 1547 1548 1548 1549 1549 1550 1550 1551 1551 1551 1552 1552 1552 1552 1552 1552 1552 1552 1553 1553 1553 1553 1553 1553 1554 1554 1555 1554 1554 1553 1552 1551 1549 1548 1547 1546 1545 1543 1542 1541 1539 1537 1535 1534 1533 1532 1530 1528 1527 1525 1522 1520 1517 1514 1511 1509 1506 1504
1498 1501 1503 1505 1507 1509 1511 1512 1514 1516 1518 1520 1521 1522 1524 1526 1529 1531 1533 1535 1537 1539 1541 1542 1544 1545 1545 1546 1547 1548 1548 1548 1549 1550 1550 1551 1551 1551 1552 1552 1552 1552 1552 1552 1552 1553 1553 1554 1554 1554 1554 1554 1555 1555 1555 1555 1554 1553 1552 1551 1549 1548 1547 1546 1545 1544 1543 1541 1539 1538 1537 1536 1534 1533 1532 1530 1527 1525 1522 1520 1517 1515 1512 1510 1508
1496 1499 1501 1503 1505 1507 1509 1511 1513 1515 1517 1518 1520 1521 1523 1525 1528 1530 1532 1535 1537 1539 1540 1542 1543 1544 1545 1545 1546 1547 1547 1547 1548 1549 1549 1550 1551 1551 1551 1552 1552 1552 1552 1552 1553 1553 1553 1554 1554 1555 1555 1555 1556 1556 1556 1556 1555 1554 1553 1552 1551 1550 1549 1548 1546 1545 1544 1543 1542 1540 1539 1538 1537 1536 1534 1532 1530 1528 1526 1524 1521 1519 1516 1514 1511
1494 1497 1499 1501 1503 1505 1507 1510 1512 1514 1516 1518 1519 1521 1522 1525 1527 1530 1532 1534 1536 1538 1539 1541 1542 1543 1544 1545 1545 1546 1546 1547 1547 1548 1549 1549 1550 1551 1551 1552 1552 1552 1552 1552 1553 1553 1554 1554 1555 1555 1555 1556 1556 1557 1557 1556 1556 1555 1554 1553 1552 1551 1550 1549 1547 1547 1546 1545 1544 1542 1541 1540 1539 1538 1536 1535 1533 1531 1529 1527 1524 1521 1518 1514 1511
1492 1494 1497 1500 1502 1503 1506 1508 1511 1513 1516 1519 1522 1524 1525 1527 1529 1530 1532 1534 1535 1537 1538 1540 1541 1542 1543 1544 1544 1545 1545 1546 1547 1547 1548 1549 1550 1550 1551 1551 1551 1552 1552 1552 1553 1553 1554 1554 1555 1555 1556 1556 1557 1557 1557 1557 1556 1555 1555 1554 1553 1552 1551 1550 1549 1548 1547 1546 1545 1544 1543 1542 1541 1539 1538 1536 1534 1533 1530 1526 1523 1521 1518 1515 1512
1489 1492 1495 1498 1500 1502 1504 1506 1509 1512 1514 1517 1521 1525 1527 1529 1530 1531 1533 1534 1535 1536 1537 1539 1540 1541 1542 1543 1544 1544 1545 1545 1546 1547 1548 1548 1549 1550 1551 1551 1551 1551 1552 1552 1553 1553 1554 1554 1555 1556 1556 1556 1557 1557 1557 1557 1556 1556 1555 1555 1554 1553 1552 1551 1550 1549 1549 1548 1547 1546 1545 1544 1542 1541 1539 1537 1535 1533 1530 1527 1525 1523 1520 1517 1515
1485 1489 1493 1496 1498 1500 1502 1504 1507 1509 1510 1512 1515 1520 1523 1526 1529 1531 1532 1534 1535 1536 1537 1538 1539 1540 1541 1542 1543 1543 1544 1545 1546 1546 1547 1548 1549 1550 1550 1550 1551 1551 1552 1552 1553 1553 1554 1555 1555 1556 1556 1556 1556 1557 1557 1557 1557 1556 1555 1555 1554 1554 1552 1552 1551 1550 1550 1549 1548 1547 1546 1545 1543 1542 1540 1538 1537 1534 1532 1530 1528 1526 1522 1520 1518
1483 1488 1492 1494 1496 1498 1500 1502 1505 1507 1509 1511 1514 1518 1521 1524 1527 1529 1531 1532 1534 1535 1536 1538 1539 1540 1540 1541 1542 1543 1544 1545 1545 1546 1547 1548 1549 1549 1550 1550 1550 1551 1551 1552 1552 1553 1554 1555 1555 1556 1556 1556 1556 1556 1557 1557 1556 1556 1556 1555 1555 1554 1553 1552 1552 1551 1551 1550 1549 1548 1547 1546 1545 1543 1541 1540 1538 1536 1534 1532 1530 1528 1525 1523 1521
1483 1488 1491 1493 1495 1497 1499 1501 1503 1507 1510 1513 1516 1518 1521 1523 1526 1527 1529 1531 1532 1533 1535 1537 1538 1539 1539 1540 1541 1542 1543 1544 1545 1545 1546 1547 1548 1549 1549 1549 1550 1550 1551 1551 1552 1553 1554 1554 1555 1556 1556 1556 1556 1556 1556 1556 1556 1556 1556 1555 1554 1554 1553 1553 1552 1552 1551 1551 1550 1549 1548 1547 1546 1544 1543 1541 1539 1537 1536 1534 1532 1530 1528 1525 1523
1484 1487 1489 1491 1493 1496 1498 1501 1503 1506 1508 1511 1514 1517 1520 1522 1524 1526 1528 1529 1531 1532 1533 1535 1536 1538 1538 1539 1540 1541 1542 1543 1544 1545 1546 1547 1547 1548 1548 1549 1549 1550 1550 1551 1552 1553 1554 1554 1555 1555 1555 1555 1556 1556 1556 1556 1556 1556 1555 1555 1554 1554 1553 1553 1553 1552 1552 1551 1550 1550 1549 1548 1546 1545 1544 1542 1540 1539 1537 1535 1533 1532 1529 1527 1525
1482 1484 1486 1489 1491 1494 1497 1500 1503 1505 1506 1508 1512 1515 1518 1520 1522 1524 1526 1528 1529 1531 1532 1533 1535 1536 1537 1538 1538 1540 1541 1542 1544 1545 1545 1546 1547 1547 1548 1548 1549 1549 1550 1551 1552 1553 1553 1554 1554 1555 1555 1555 1555 1555 1555 1555 1555 1555 1555 1555 1554 1554 1554 1553 1553 1553 1552 1552 1551 1550 1549 1548 1547 1546 1545 1543 1541 1540 1538 1537 1535 1533 1531 1530 1528
1480 1483 1485 1488 1490 1492 1496 1501 1504 1505 1505 1508 1512 1515 1517 1519 1521 1523 1524 1526 1527 1528 1530 1531 1533 1534 1535 1536 1537 1538 1540 1541 1543 1544 1544 1545 1546 1546 1547 1548 1548 1549 1550 1550 1551 1552 1553 1554 1554 1554 1554 1555 1555 1555 1555 1555 1555 1555 1555 1555 1554 1554 1554 1554 1553 1553 1553 1552 1551 1550 1549 1548 1547 1546 1545 1544 1542 1541 1539 1538 1536 1535 1533 1531 1530
1481 1484 1485 1487 1489 1491 1495 1500 1502 1503 1505 1508 1511 1515 1517 1518 1520 1522 1523 1524 1525 1526 1528 1529 1531 1533 1534 1535 1536 1537 1539 1540 1541 1542 1543 1544 1545 1546 1546 1547 1548 1549 1549 1550 1551 1552 1553 1553 1554 1554 1554 1554 1554 1555 1555 1555 1555 1555 1555 1555 1554 1554 1554 1554 1554 1553 1553 1552 1552 1551 1550 1549 1548 1547 1546 1544 1543 1542 1541 1539 1538 1536 1535 1533 1531
1481 1483 1485 1486 1488 1491 1494 1497 1499 1502 1505 1507 1510 1513 1516 1517 1519 1520 1521 1522 1523 1525 1526 1528 1529 1531 1532 1533 1535 1536 1538 1539 1540 1541 1542 1543 1544 1545 1545 1546 1547 1548 1549 1550 1551 1551 1552 1553 1553 1553 1553 1554 1554 1554 1554 1555 1555 1555 1555 1555 1554 1554 1554 1554 1554 1553 1553 1553 1552 1551 1550 1549 1548 1547 1546 1545 1544 1543 1541 1540 1539 1537 1536 1535 1533
1480 1482 1484 1486 1487 1490 1493 1496 1498 1501 1504 1507 1508 1511 1514 1516 1517 1518 1519 1521 1522 1523 1524 1526 1527 1528 1530 1531 1533 1535 1536 1538 1539 1540 1541 1542 1543 1544 1544 1545 1546 1547 1549 1550 1550 1551 1552 1552 1553 1553 1553 1554 1554 1554 1554 1554 1555 1555 1555 1555 1555 1555 1555 1554 1554 1553 1553 1553 1552 1551 1550 1549 1548 1547 1547 1546 1545 1543 1542 1540 1539 1538 1537 1535 1534
1480 1482 1484 1485 1487 1489 1492 1495 1497 1500 1504 1506 1508 1509 1511 1513 1515 1516 1518 1519 1520 1521 1523 1523 1525 1527 1528 1529 1531 1533 1534 1535 1536 1538 1539 1541 1542 1543 1543 1544 1546 1547 1548 1549 1550 1550 1551 1551 1552 1552 1553 1553 1553 1554 1554 1554 1554 1555 1555 1555 1555 1555 1555 1554 1554 1554 1553 1553 1552 1551 1550 1549 1549 1548 1547 1546 1545 1544 1542 1541 1540 1538 1537 1536 1534
1479 1482 1483 1484 1486 1489 1492 1494 1496 1499 1502 1505 1507 1509 1510 1512 1513 1515 1517 1518 1519 1520 1521 1522 1524 1526 1527 1528 1529 1530 1532 1533 1535 1537 1539 1540 1541 1542 1543 1544 1545 1546 1548 1549 1549 1550 1550 1550 1551 1551 1552 1553 1553 1553 1554 1554 1554 1554 1554 1554 1555 1555 1555 1554 1554 1553 1553 1553 1552 1551 1550 1550 1549 1548 1547 1546 1545 1544 1542 1541 1540 1539 1537 1536 1534
1478 1481 1482 1484 1486 1488 1491 1493 1495 1498 1501 1503 1506 1508 1509 1511 1513 1514 1516 1517 1518 1519 1520 1521 1523 1524 1525 1527 1528 1529 1531 1533 1535 1537 1538 1540 1541 1542 1542 1543 1544 1546 1547 1548 1549 1549 1549 1550 1550 1551 1551 1552 1552 1553 1553 1553 1553 1554 1554 1554 1554 1554 1554 1554 1554 1553 1553 1552 1552 1551 1550 1550 1549 1548 1547 1546 1545 1544 1542 1541 1540 1539 1537 1536 1534
1477 1479 1481 1483 1485 1488 1491 1493 1495 1498 1500 1503 1505 1507 1508 1510 1512 1513 1515 1516 1517 1518 1519 1520 1521 1522 1524 1525 1527 1528 1531 1533 1535 1536 1537 1538 1540 1540 1541 1542 1543 1545 1546 1547 1548 1548 1549 1549 1549 1550 1550 1551 1551 1552 1552 1552 1553 1553 1553 1553 1553 1553 1553 1553 1553 1553 1553 1552 1551 1551 1550 1549 1549 1548 1547 1546 1545 1544 1542 1541 1540 1539 1537 1536 1534
1477 1478 1481 1483 1485 1487 1490 1492 1495 1497 1499 1502 1504 1505 1506 1508 1510 1512 1513 1515 1515 1516 1517 1518 1519 1520 1522 1524 1525 1527 1529 1531 1533 1534 1536 1537 1538 1539 1540 1541 1542 1544 1545 1546 1547 1547 1548 1548 1548 1549 1549 1550 1550 1551 1551 1551 1552 1552 1552 1552 1552 1552 1552 1552 1552 1552 1552 1551 1551 1550 1550 1549 1548 1547 1547 1546 1544 1543 1543 1541 1540 1539 1537 1536 1534
1476 1478 1479 1482 1484 1486 1488 1490 1493 1496 1498 1500 1501 1502 1504 1506 1508 1510 1511 1512 1513 1514 1515 1516 1517 1519 1520 1522 1524 1525 1528 1530 1531 1533 1534 1535 1536 1538 1539 1540 1541 1542 1544 1545 1545 1546 1547 1547 1548 1548 1548 1549 1549 1550 1550 1550 1551 1551 1551 1551 1551 1551 1551 1551 1551 1551 1551 1551 1550 1550 1549 1548 1547 1547 1546 1545 1544 1543 1542 1541 1540 1539 1537 1536 1535
1475 1477 1479 1481 1482 1484 1486 1489 1492 1494 1496 1498 1499 1501 1503 1505 1507 1508 1509 1510 1511 1512 1513 1514 1515 1517 1518 1520 1522 1524 1526 1528 1530 1531 1532 1534 1535 1536 1537 1538 1540 1541 1542 1543 1544 1545 1546 1546 1547 1547 1547 1548 1548 1548 1549 1549 1550 1550 1550 1550 1550 1550 1550 1550 1550 1550 1550 1550 1549 1549 1548 1547 1547 1546 1545 1545 1544 1543 1542 1541 1540 1539 1537 1536 1535
1474 1476 1478 1480 1482 1484 1486 1488 1490 1493 1494 1496 1498 1500 1501 1503 1505 1507 1508 1509 1510 1510 1511 1512 1514 1515 1517 1519 1520 1522 1524 1526 1528 1530 1531 1532 1534 1535 1536 1537 1538 1539 1541 1542 1543 1544 1544 1545 1545 1546 1546 1547 1547 1547 1548 1548 1548 1548 1549 1549 1549 1549 1549 1549 1549 1549 1549 1548 1548 1547 1547 1546 1545 1545 1544 1544 1543 1542 1541 1540 1539 1538 1537 1536 1534
1474 1475 1477 1479 1481 1483 1485 1487 1489 1491 1493 1494 1496 1498 1500 1502 1504 1505 1507 1508 1509 1510 1511 1512 1513 1514 1516 1517 1519 1521 1522 1524 1526 1528 1529 1531 1532 1533 1534 1535 1537 1538 1539 1540 1541 1542 1543 1544 1544 1545 1545 1546 1546 1546 1546 1547 1547 1547 1547 1547 1547 1548 1548 1548 1547 1547 1547 1547 1547 1546 1546 1545 1544 1544 1543 1542 1542 1541 1540 1540 1539 1538 1537 1535 1534
1473 1474 1476 1478 1480 1482 1484 1486 1488 1490 1491 1493 1495 1497 1499 1501 1503 1504 1506 1507 1508 1508 1509 1510 1511 1512 1514 1515 1517 1519 1521 1523 1524 1526 1527 1529 1530 1531 1533 1534 1536 1537 1538 1539 1540 1541 1541 1542 1543 1543 1544 1544 1545 1545 1545 1545 1545 1546 1546 1546 1546 1546 1546 1546 1546 1545 1545 1545 1545 1544 1544 1543 1543 1542 1541 1541 1540 1540 1539 1538 1538 1537 1536 1535 1534
1472 1473 1475 1476 1478 1481 1483 1484 1486 1488 1490 1492 1494 1496 1497 1499 1501 1503 1504 1505 1506 1507 1508 1509 1510 1511 1513 1514 1516 1517 1519 1521 1522 1524 1526 1527 1528 1530 1531 1533 1534 1535 1536 1537 1539 1539 1540 1541 1541 1542 1542 1543 1543 1543 1544 1544 1544 1544 1544 1544 1544 1544 1544 1544 1544 1543 1543 1543 1542 1542 1542 1541 1541 1540 1540 1539 1539 1538 1538 1537 1536 1535 1535 1534 1533
1471 1472 1474 1475 1477 1479 1481 1483 1485 1486 1488 1490 1492 1494 1496 1498 1500 1501 1502 1504 1505 1506 1507 1508 1509 1511 1512 1513 1515 1516 1517 1519 1520 1522 1524 1525 1527 1528 1530 1531 1531 1532 1534 1535 1536 1537 1538 1539 1540 1540 1541 1541 1542 1542 1542 1542 1542 1542 1542 1542 1542 1542 1542 1542 1542 1541 1541 1541 1540 1540 1539 1539 1539 1538 1537 1537 1537 1536 1535 1535 1534 1534 1533 1532 1532
1469 1471 1473 1474 1475 1477 1479 1481 1483 1484 1485 1487 1489 1491 1494 1496 1498 1499 1500 1502 1503 1504 1505 1507 1508 1510 1511 1512 1513 1514 1515 1517 1518 1520 1521 1523 1525 1526 1527 1528 1529 1530 1531 1533 1534 1535 1536 1537 1538 1539 1539 1540 1540 1540 1540 1541 1541 1541 1540 1540 1540 1540 1540 1540 1540 1540 1539 1539 1538 1537 1537 1537 1536 1536 1535 1535 1534 1534 1533 1533 1532 1532 1531 1530 1530
1468 1470 1471 1472 1474 1475 1477 1479 1481 1482 1483 1485 1487 1489 1492 1493 1495 1496 1498 1499 1501 1502 1504 1506 1507 1509 1510 1511 1512 1513 1514 1516 1517 1518 1520 1521 1523 1524 1525 1526 1527 1528 1529 1531 1532 1533 1534 1535 1536 1537 1537 1538 1538 1539 1539 1539 1539 1539 1539 1539 1538 1538 1538 1538 1538 1538 1537 1536 1536 1535 1535 1534 1534 1533 1533 1532 1532 1531 1530 1530 1530 1529 1529 1528 1528
1467 1468 1469 1471 1472 1473 1475 1478 1479 1480 1482 1483 1485 1487 1489 1491 1492 1494 1496 1498 1500 1501 1503 1504 1506 1507 1508 1509 1510 1512 1513 1515 1516 1518 1519 1520 1521 1522 1522 1523 1525 1526 1527 1529 1530 1531 1532 1533 1534 1535 1535 1536 1536 1537 1537 1537 1537 1537 1537 1537 1536 1536 1536 1536 1536 1535 1535 1534 1534 1533 1532 1532 1531 1531 1530 1530 1529 1528 1528 1527 1527 1526 1526 1525 1525
1465 1466 1468 1469 1470 1472 1474 1476 1477 1479 1480 1482 1483 1485 1488 1490 1491 1493 1495 1497 1499 1500 1501 1503 1504 1505 1506 1507 1508 1510 1511 1513 1515 1516 1518 1518 1519 1520 1521 1521 1523 1524 1525 1527 1528 1529 1530 1531 1532 1533 1533 1534 1534 1534 1534 1535 1535 1534 1534 1534 1534 1534 1534 1534 1534 1533 1532 1532 1531 1531 1530 1529 1529 1528 1527 1527 1526 1526 1525 1524 1524 1523 1523 1522 1522
1463 1465 1466 1467 1469 1470 1472 1474 1476 1477 1479 1480 1482 1484 1486 1488 1490 1491 1492 1495 1497 1498 1500 1501 1502 1503 1504 1504 1506 1507 1509 1511 1513 1515 1516 1517 1517 1518 1519 1520 1521 1522 1523 1525 1526 1527 1528 1529 1530 1530 1531 1532 1532 1532 1532 1532 1532 1532 1532 1532 1532 1532 1531 1531 1531 1531 1530 1530 1529 1528 1528 1527 1526 1525 1525 1524 1524 1523 1522 1521 1521 1520 1520 1519 1519
1461 1463 1464 1466 1467 1469 1470 1472 1474 1476 1477 1478 1480 1482 1484 1486 1487 1489 1490 1492 1494 1496 1498 1499 1500 1501 1502 1503 1504 1505 1507 1509 1511 1513 1514 1515 1516 1516 1517 1518 1518 1520 1521 1522 1524 1525 1526 1527 1528 1528 1529 1529 1530 1530 1530 1530 1530 1530 1529 1529 1529 1529 1529 1529 1529 1528 1528 1527 1527 1526 1525 1524 1524 1523 1522 1521 1521 1520 1519 1518 1518 1517 1516 1516 1515
1459 1461 1463 1464 1466 1467 1469 1471 1472 1474 1475 1477 1479 1480 1482 1483 1485 1487 1488 1490 1492 1494 1496 1497 1498 1499 1500 1501 1502 1503 1505 1507 1509 1510 1511 1512 1513 1514 1515 1516 1517 1518 1519 1520 1521 1522 1523 1524 1525 1526 1526 1527 1527 1527 1527 1527 1527 1527 1527 1527 1526 1526 1526 1526 1526 1526 1525 1525 1524 1523 1523 1522 1521 1520 1519 1518 1518 1517 1516 1515 1515 1514 1513 1513 1512
1458 1459 1461 1463 1465 1466 1468 1469 1471 1472 1474 1476 1477 1479 1480 1482 1484 1485 1487 1489 1491 1492 1493 1494 1496 1496 1497 1498 1500 1501 1503 1505 1506 1507 1508 1509 1510 1512 1513 1514 1515 1516 1517 1518 1519 1520 1521 1522 1523 1523 1524 1524 1525 1525 1525 1525 1524 1524 1524 1524 1524 1523 1523 1523 1523 1523 1522 1522 1521 1520 1520 1519 1518 1517 1516 1515 1515 1514 1513 1512 1511 1510 1510 1509 1508
1456 1458 1460 1462 1463 1465 1466 1468 1469 1471 1473 1475 1476 1477 1479 1481 1483 1485 1486 1488 1490 1490 1491 1492 1494 1495 1496 1497 1498 1500 1502 1503 1503 1504 1505 1507 1508 1510 1511 1512 1513 1514 1515 1516 1517 1518 1519 1520 1520 1521 1521 1522 1522 1522 1522 1522 1522 1521 1521 1521 1521 1521 1520 1520 1520 1519 1519 1518 1517 1516 1516 1515 1514 1514 1513 1512 1511 1510 1509 1509 1508 1507 1506 1505 1504
1455 1457 1459 1460 1462 1463 1465 1467 1468 1470 1472 1473 1475 1477 1478 1480 1482 1484 1486 1487 1489 1490 1491 1491 1492 1493 1495 1496 1498 1500 1501 1501 1502 1502 1504 1505 1507 1508 1510 1511 1512 1513 1514 1515 1516 1517 1517 1518 1518 1518 1518 1519 1518 1518 1518 1519 1519 1518 1518 1518 1517 1517 1517 1516 1516 1515 1514 1514 1513 1512 1512 1511 1510 1510 1510 1509 1508 1507 1506 1505 1504 1503 1503 1502 1501
1454 1456 1458 1459 1461 1463 1464 1466 1467 1469 1470 1472 1474 1476 1477 1479 1481 1483 1485 1487 1488 1489 1490 1491 1491 1493 1494 1496 1498 1499 1500 1501 1501 1502 1503 1504 1506 1507 1509 1510 1511 1511 1512 1513 1514 1515 1516 1516 1516 1516 1516 1515 1515 1515 1515 1515 1515 1514 1514 1514 1513 1513 1513 1512 1511 1511 1510 1509 1508 1508 1507 1507 1506 1506 1505 1505 1504 1503 1502 1501 1500 1500 1499 1498 1497
1454 1456 1458 1459 1461 1462 1464 1465 1466 1468 1470 1471 1473 1475 1476 1478 1480 1483 1485 1486 1487 1488 1489 1490 1491 1492 1494 1495 1497 1498 1499 1500 1501 1502 1503 1504 1506 1506 1507 1508 1509 1509 1510 1511 1512 1513 1513 1513 1513 1513 1512 1512 1512 1511 1511 1511 1511 1511 1510 1510 1510 1509 1509 1508 1508 1507 1506 1505 1504 1504 1503 1502 1502 1501 1501 1500 1499 1498 1497 1496 1496 1495 1494 1493 1492
Wind_Speed
24 22 20 19 18 17 18 19 19 19 19 18 16 14 12 11 10 8 6 7 9 9 7 5 3 1 1 2 3 4 4 5 7 9 9 9 7 6 5 5 6 7 8 10 12 12 12 13 15 14 13 13 16 17 18 19 20 21 22 22 23 23 22 22 23 24 24 25 27 29 30 30 30 32 31 29 28 26 25 24 24 24 22 20 19
23 22 21 20 19 18 18 19 19 19 19 18 16 14 13 11 10 9 7 8 10 9 7 5 3 1 2 3 3 3 4 6 8 9 10 9 7 5 4 4 6 7 7 10 12 12 12 13 14 14 13 14 16 18 18 20 20 22 23 23 24 24 24 24 24 25 26 27 28 30 31 32 33 34 34 33 31 29 27 27 26 26 25 23 22
22 21 21 21 19 19 18 18 19 20 19 18 16 15 13 12 11 9 8 10 11 10 7 5 3 2 2 2 3 3 4 6 8 9 9 8 6 4 4 4 5 6 7 10 12 11 11 13 15 14 13 15 17 18 18 19 20 22 23 23 24 24 25 25 25 26 28 29 30 32 33 33 33 33 32 32 32 30 29 29 28 28 27 26 25
22 21 22 21 20 19 19 19 20 20 19 17 16 15 14 13 12 10 10 11 12 11 8 6 3 2 2 1 2 2 4 5 7 8 8 7 5 4 4 5 5 6 8 10 11 11 12 14 15 14 14 15 17 17 18 19 20 21 22 23 24 24 25 25 26 26 27 29 30 31 31 32 32 31 30 30 30 30 30 30 30 30 29 28 27
22 22 22 21 20 20 20 20 20 20 18 17 17 16 15 13 12 12 11 12 13 12 10 7 5 3 2 1 0 1 3 4 6 7 7 6 5 4 4 4 5 6 8 9 10 10 12 14 15 14 14 16 17 17 17 18 19 20 21 22 23 23 24 25 25 26 28 29 30 30 30 31 31 32 31 31 30 30 30 30 30 31 30 28 27
22 22 22 21 21 21 21 21 21 20 19 18 17 16 15 14 14 13 13 14 14 13 10 8 6 4 3 2 1 2 2 3 5 6 5 4 4 4 4 4 5 6 7 8 9 10 12 14 14 14 15 17 18 17 17 17 18 19 20 21 21 22 23 24 25 26 28 30 30 31 31 32 32 32 32 32 32 31 31 31 31 32 32 31 29
22 23 23 22 22 22 22 21 21 20 19 18 17 17 16 15 15 15 15 16 15 13 11 9 7 5 4 3 3 3 2 3 4 5 3 3 3 3 4 4 5 5 6 7 8 10 12 13 14 15 15 17 17 17 17 17 17 18 19 19 20 21 23 24 25 26 28 29 31 32 32 32 32 32 31 31 31 33 34 34 33 33 33 33 31
24 24 23 23 22 22 22 22 21 20 19 18 17 17 16 16 16 17 18 17 16 13 11 9 7 6 5 4 4 4 3 3 4 3 2 1 2 3 3 4 4 5 6 7 9 10 11 12 13 14 14 15 17 17 17 16 16 17 18 18 19 21 22 24 25 27 27 29 31 32 32 33 33 33 32 33 35 35 35 34 34 34 33 33 32
25 25 24 24 23 23 23 22 21 20 19 19 17 16 16 16 17 19 20 19 17 14 12 10 8 7 6 6 6 5 4 4 3 2 1 2 2 2 3 3 4 5 6 7 9 10 11 11 12 12 13 14 15 15 16 16 16 17 17 18 19 20 22 23 25 26 27 29 30 31 33 35 35 35 35 36 36 35 32 32 33 33 33 32 32
27 26 25 24 23 24 23 22 21 20 20 18 16 15 16 17 19 21 21 19 17 15 13 11 9 8 7 7 7 6 6 5 4 2 2 3 3 2 3 4 4 5 5 7 8 9 10 9 10 10 11 12 13 14 14 15 15 16 16 18 19 20 21 23 24 25 26 28 30 31 33 35 35 34 34 32 32 32 32 33 33 33 33 33 34
28 27 25 25 25 25 24 23 21 21 20 18 16 16 18 19 20 21 21 19 17 16 14 12 11 9 9 8 8 7 7 6 4 3 3 3 3 3 3 4 5 5 5 6 7 8 9 9 8 9 9 9 11 11 12 13 15 16 16 17 18 19 20 21 22 23 24 26 28 29 32 33 33 32 32 31 30 31 32 33 33 34 35 36 36
28 26 25 25 27 26 24 23 21 21 20 17 16 17 19 21 22 22 21 19 18 16 15 13 12 11 10 9 9 8 8 6 5 4 4 4 4 4 4 4 5 5 6 6 7 7 8 8 7 7 7 8 9 10 10 12 14 16 16 16 17 18 19 20 20 21 22 24 26 28 30 31 31 32 32 31 31 30 30 31 32 33 35 36 37
28 27 24 25 27 26 25 23 21 21 20 16 16 19 21 22 23 22 20 19 18 16 15 14 12 12 11 10 9 9 8 7 6 5 5 5 5 5 5 4 5 5 5 6 6 6 6 6 6 6 6 6 7 8 9 11 13 15 16 16 16 17 18 18 19 19 20 22 24 26 28 29 30 31 31 31 30 30 30 31 31 33 34 35 35
30 28 25 24 27 27 26 24 22 22 20 17 18 21 23 24 23 21 20 19 18 17 15 14 13 13 12 11 10 9 8 7 7 7 6 7 7 6 5 5 5 5 5 5 5 5 5 5 5 5 4 4 5 6 8 10 12 15 16 15 15 16 16 16 17 18 18 20 22 24 25 26 28 28 28 29 30 31 32 31 31 32 33 33 33
34 30 26 25 27 28 26 24 23 22 20 19 21 24 25 25 23 21 19 18 17 16 15 14 14 13 13 12 10 9 9 8 8 8 8 8 8 7 6 5 5 4 4 4 4 4 3 3 3 4 3 3 3 5 7 9 11 14 15 15 15 15 15 15 16 17 17 19 20 21 22 24 25 26 26 27 28 29 30 30 29 29 30 31 33
37 32 27 26 27 27 26 24 23 22 20 20 23 27 26 24 23 21 19 18 17 16 14 14 14 14 13 12 11 10 9 9 10 9 9 9 8 7 6 5 5 4 4 4 3 3 3 3 3 3 3 2 2 3 5 8 10 12 13 14 15 15 15 15 16 16 16 17 18 19 20 21 23 24 25 25 26 26 26 27 28 28 29 31 34
37 32 27 26 27 26 25 23 22 20 18 20 24 25 23 22 21 19 19 18 16 15 14 14 14 14 13 12 11 9 9 11 11 10 10 9 8 7 6 5 5 4 3 3 3 3 3 3 3 3 3 2 1 2 4 6 9 11 12 13 14 14 15 16 15 15 15 15 16 17 18 19 21 22 23 24 25 25 27 30 32 32 32 33 35
36 31 27 26 27 26 25 24 23 18 16 19 23 23 21 20 19 18 17 15 14 13 14 15 15 14 12 11 10 9 10 12 12 12 11 9 8 6 6 5 4 4 3 3 3 3 3 3 4 4 3 2 1 2 3 5 7 9 10 11 12 13 15 15 15 14 14 14 14 15 16 18 20 21 22 23 23 25 27 30 32 32 34 35 34
35 30 27 27 28 27 26 25 23 18 15 19 23 24 23 21 19 18 16 14 12 12 15 16 15 14 13 11 10 9 10 13 13 12 11 10 8 6 5 5 4 3 3 3 3 3 3 3 3 3 3 2 1 1 2 4 6 7 8 10 10 12 14 15 14 14 13 12 12 14 15 17 19 20 21 22 22 23 25 27 29 30 33 34 34
32 27 26 28 28 28 27 25 22 18 19 23 25 25 24 22 20 19 17 14 11 12 15 16 16 15 14 12 11 10 11 13 13 13 11 9 8 7 5 5 4 3 3 3 2 2 3 3 3 3 2 2 1 1 2 3 4 6 7 8 9 11 13 14 14 13 12 12 12 13 14 16 18 19 20 20 21 22 23 24 26 28 29 31 33
29 24 25 28 29 28 26 24 19 17 19 24 25 24 23 22 20 19 17 14 12 13 16 17 16 16 14 13 12 12 11 12 12 12 12 10 9 7 6 5 4 3 2 2 2 2 3 3 3 3 3 3 3 3 3 3 3 4 6 6 7 10 11 12 13 12 11 11 11 12 13 15 16 17 18 19 20 20 21 23 24 26 27 28 30
26 25 25 27 29 27 24 22 18 16 19 25 26 25 23 22 20 19 17 15 12 13 16 18 18 16 15 14 13 13 13 12 11 12 12 10 9 8 7 6 5 3 3 2 2 2 3 3 3 3 3 3 3 3 3 2 2 3 4 4 6 8 9 10 11 10 10 9 10 11 12 14 15 16 17 18 19 19 20 21 23 24 25 26 27
27 29 28 28 27 25 23 20 16 15 21 27 27 25 24 23 21 20 18 15 13 14 17 20 19 18 16 15 15 15 15 13 11 11 11 10 10 9 8 6 5 4 3 3 2 2 2 2 3 3 4 4 3 2 2 1 0 1 2 4 5 6 7 8 8 8 8 9 9 10 11 13 14 16 17 17 17 18 18 20 21 23 23 23 24
31 30 28 26 23 23 22 17 13 16 24 27 25 23 23 23 22 21 18 15 13 14 17 21 20 19 18 17 17 18 17 15 13 11 11 10 10 9 9 8 6 5 4 3 3 2 2 2 3 3 4 4 3 3 2 2 1 1 2 3 5 5 6 6 6 6 6 7 8 9 11 12 14 15 16 16 16 16 17 18 19 21 22 23 22
29 27 25 24 21 21 21 18 16 22 27 27 24 23 24 23 22 20 18 15 13 14 18 21 21 20 19 18 18 18 18 16 15 13 12 11 10 10 9 8 7 6 5 4 3 3 2 2 2 4 4 3 3 3 3 2 2 1 2 3 4 4 5 5 5 5 6 6 7 9 10 11 13 14 15 15 15 15 16 16 17 19 20 21 21
25 26 25 22 20 21 21 19 20 25 27 27 25 23 23 22 19 18 17 15 14 15 18 21 22 21 20 19 19 19 19 18 17 16 14 13 12 11 10 9 8 7 6 5 5 4 4 3 2 4 4 3 3 3 3 3 2 2 2 3 3 3 3 3 4 4 5 6 7 8 10 10 11 13 13 13 13 14 15 16 16 16 17 19 20
24 25 23 21 21 22 21 19 21 25 26 26 24 23 23 21 18 17 16 14 14 16 19 21 23 22 21 21 20 20 19 18 19 19 18 16 14 12 11 9 9 8 8 7 6 6 5 4 3 4 4 3 3 3 2 2 2 2 2 2 2 1 2 2 3 4 4 5 6 8 9 10 10 11 11 12 12 13 14 14 15 16 16 17 18
23 23 22 21 21 21 18 17 21 25 26 25 24 24 23 21 19 17 13 11 13 15 19 22 23 22 21 22 22 22 21 21 21 20 19 17 15 13 11 9 9 9 9 8 8 7 6 5 4 3 4 4 3 2 2 2 1 1 1 1 1 1 1 2 2 3 4 5 6 7 8 9 9 10 11 11 12 12 13 13 13 14 15 16 17
22 22 21 20 21 20 17 17 21 26 26 25 24 24 22 20 18 15 11 10 11 12 15 19 20 20 20 21 21 22 21 21 20 19 17 16 14 11 9 9 10 10 10 10 9 9 8 7 5 4 3 3 3 3 2 2 1 1 1 1 1 1 2 2 2 3 4 4 5 6 7 8 9 9 10 11 12 12 13 13 13 13 14 15 16
21 22 22 21 21 21 21 21 23 26 25 24 23 24 24 22 20 15 11 10 10 9 12 14 15 16 18 18 19 19 17 15 16 17 16 15 13 10 8 8 10 11 11 11 10 10 9 9 7 5 4 4 3 3 3 3 3 2 2 2 2 2 2 2 3 3 3 4 5 6 6 7 8 9 9 10 11 12 13 13 13 13 14 14 15
20 22 23 23 22 23 24 25 26 27 25 22 22 24 25 24 20 15 13 12 10 10 12 13 13 14 15 15 17 17 15 15 16 16 15 15 13 12 11 11 12 13 13 12 11 11 11 10 8 7 6 5 4 4 4 4 4 4 4 4 4 4 4 4 4 4 4 4 4 5 6 7 7 8 9 9 10 11 12 12 13 13 13 14 15
20 22 22 22 22 22 23 25 27 28 26 22 22 26 27 24 20 17 15 14 13 11 12 13 14 14 14 14 15 15 14 15 16 16 15 15 14 13 13 13 14 14 14 14 13 12 12 11 9 9 8 6 5 5 5 5 5 5 5 5 5 5 5 5 5 5 6 6 5 5 6 7 7 8 9 9 10 10 11 11 12 12 12 13 13
19 20 21 21 21 22 24 26 27 28 26 21 21 25 28 25 21 16 15 15 15 14 14 14 15 15 15 15 15 14 13 13 15 15 15 14 14 15 15 15 16 17 16 16 15 14 13 12 11 10 9 7 7 6 6 6 6 7 7 6 6 7 6 6 6 6 7 7 7 6 6 7 7 8 9 9 9 10 10 11 11 12 12 12 13
16 18 19 19 20 21 23 25 26 27 25 20 17 20 24 24 20 16 14 15 16 16 16 16 17 17 16 15 15 14 13 13 14 14 14 14 15 16 16 17 18 18 18 18 17 15 14 13 12 11 9 8 8 8 8 7 8 8 8 8 8 8 8 7 7 7 8 8 8 7 7 7 8 8 9 9 10 10 10 11 11 12 12 12 12
14 15 17 19 20 19 19 22 24 24 23 21 19 19 22 23 20 16 15 15 15 16 17 17 18 18 17 17 16 15 15 14 13 13 13 14 15 17 18 19 20 20 20 19 18 17 16 14 13 11 10 9 8 8 8 8 9 9 9 9 9 9 9 9 8 8 9 9 9 9 9 9 9 9 9 10 10 10 10 11 11 12 12 12 12
13 14 17 20 21 19 17 19 21 20 19 19 21 22 24 23 20 16 14 14 14 15 17 18 19 19 19 19 18 17 16 15 14 12 13 14 15 17 18 19 19 20 21 21 20 18 17 16 14 12 11 10 9 9 9 9 9 9 10 9 9 10 10 10 10 9 9 10 10 10 10 10 10 10 10 10 10 11 10 11 11 11 12 12 12
12 14 16 19 21 20 18 18 19 19 19 19 20 23 25 24 21 17 15 14 15 16 17 18 20 21 21 21 20 18 17 16 15 14 14 15 17 18 19 19 19 20 21 21 21 20 19 17 15 13 13 12 11 10 9 9 9 9 10 10 10 11 11 11 11 11 11 11 11 11 12 12 12 12 11 11 11 11 11 11 11 11 12 12 12
11 12 14 16 18 18 18 18 18 20 21 21 22 23 25 24 21 18 16 15 16 17 18 20 21 20 20 20 20 19 18 17 16 15 16 17 18 19 19 20 20 21 21 21 21 21 20 18 16 15 14 14 12 11 10 9 9 9 10 10 11 11 11 12 12 12 12 12 13 13 13 14 13 13 13 12 12 12 12 12 12 11 12 12 12
12 12 14 15 16 17 18 17 16 17 20 22 23 25 26 24 20 18 17 17 17 17 18 20 21 20 19 18 18 18 18 18 18 17 17 17 17 18 19 21 22 23 22 22 22 22 21 19 17 16 15 14 14 12 11 10 10 10 10 11 11 12 12 12 12 12 13 13 13 14 14 15 15 15 15 14 13 13 13 13 13 13 12 12 12
13 13 15 16 18 19 18 17 15 16 18 21 23 24 23 21 19 18 18 18 18 18 18 21 21 19 18 18 18 18 17 17 17 17 17 17 17 17 18 20 22 23 23 22 23 23 22 20 18 17 16 15 14 13 12 11 10 10 11 12 12 12 12 12 12 13 13 13 14 14 15 15 16 16 16 16 15 15 15 14 14 14 14 13 13
14 15 16 17 19 20 19 18 16 15 17 20 23 23 21 18 18 18 18 18 18 17 18 20 19 18 17 17 18 18 18 17 16 16 15 15 15 16 17 19 20 21 22 22 23 23 22 21 19 18 17 16 15 14 13 12 12 12 13 13 13 13 13 13 13 14 14 15 15 15 15 15 16 17 17 17 16 17 17 16 16 16 15 15 15
15 16 17 18 19 20 20 20 18 16 15 17 22 23 21 19 18 18 17 16 16 15 16 18 17 16 15 16 17 18 19 19 19 18 17 17 16 16 17 18 19 20 20 21 22 22 22 21 20 19 18 17 16 15 14 14 14 14 14 14 14 15 14 14 14 14 15 15 16 16 16 16 17 18 18 18 18 18 18 18 18 17 17 17 17
17 17 17 17 19 20 21 22 21 18 15 15 19 22 20 18 17 17 16 14 14 14 15 16 15 14 13 14 14 16 18 20 20 20 20 19 18 17 17 17 18 19 19 20 21 22 22 22 22 21 19 18 17 17 16 15 15 15 15 15 16 16 16 15 14 14 14 15 16 16 17 17 18 19 19 19 19 20 20 20 20 20 19 19 19
19 19 19 19 19 20 21 22 22 18 16 15 17 18 16 14 15 15 14 13 12 13 13 13 13 13 12 12 12 13 16 18 20 21 20 19 19 18 17 17 17 18 19 20 21 22 22 23 22 21 20 19 19 19 18 18 17 17 16 16 17 17 16 15 14 12 13 14 15 16 17 18 19 20 21 21 21 21 21 21 21 21 20 20 20
19 19 19 19 19 19 20 21 20 18 17 17 17 16 15 14 14 14 13 12 11 11 12 12 12 12 12 12 12 14 15 17 18 20 20 20 20 19 18 17 16 17 19 19 20 21 23 23 23 22 21 21 21 20 20 20 19 18 18 17 17 17 16 15 14 13 13 15 17 17 18 19 20 20 21 21 21 22 22 22 22 22 22 22 22
18 20 20 20 19 18 19 19 18 18 18 17 16 15 15 15 15 14 12 11 10 9 9 10 10 11 12 13 14 16 17 18 19 19 20 20 19 18 17 16 16 17 18 18 19 21 23 24 24 24 23 23 22 22 22 22 20 19 19 18 18 18 17 15 15 16 16 18 19 19 20 21 22 22 22 22 22 22 23 23 23 24 24 24 24
17 19 20 19 17 16 17 17 18 19 18 16 15 15 15 15 14 12 11 10 8 7 6 7 8 10 12 13 15 17 18 18 18 18 17 17 15 15 14 15 15 16 17 17 18 20 22 24 25 25 25 25 24 24 23 22 21 20 20 20 20 19 18 17 17 18 19 19 20 21 22 23 23 23 23 23 23 24 24 24 24 24 25 25 25
16 18 18 17 15 15 15 15 16 17 16 15 14 15 16 14 11 9 9 8 6 4 4 5 6 6 7 7 9 10 12 13 13 13 13 12 11 11 11 12 12 13 13 14 15 16 17 19 20 22 23 24 25 26 25 23 22 21 20 20 20 19 19 19 20 21 21 22 23 24 25 25 25 25 25 25 25 26 26 26 25 24 24 24 24
15 16 16 16 15 14 13 12 13 14 14 14 15 16 14 12 11 10 10 8 5 4 5 6 6 6 4 3 3 2 3 5 6 7 8 8 7 7 8 8 8 9 9 10 11 13 14 15 16 18 20 22 24 25 25 24 22 21 21 21 21 22 22 23 24 25 25 26 27 28 28 29 29 28 28 27 27 27 28 27 27 26 26 26 26
13 14 14 14 13 13 11 9 10 12 14 16 16 15 14 14 14 12 9 6 4 5 6 7 7 6 5 3 2 1 0 1 1 2 4 5 5 6 7 8 9 9 10 10 11 12 13 15 16 17 18 20 21 21 22 22 23 23 23 23 24 25 26 27 27 28 28 29 30 30 30 31 31 31 31 30 30 30 30 30 30 29 29 29 29
10 10 10 10 10 9 9 9 11 14 16 17 16 15 16 16 14 9 6 5 5 5 6 7 7 6 4 3 2 1 1 1 2 2 2 3 5 6 7 8 10 11 11 11 12 12 13 14 15 16 18 19 19 19 19 20 22 23 24 26 27 28 28 29 29 28 29 29 30 31 31 32 32 32 31 31 32 33 34 34 34 34 34 34 34
Wind_Direction
211 215 214 209 205 202 201 202 206 212 217 221 225 228 230 236 245 253 253 228 208 203 207 216 229 230 123 99 88 70 53 37 30 30 25 21 26 35 42 32 20 28 38 46 52 52 51 56 61 62 57 54 57 56 54 54 52 50 49 46 46 48 47 49 53 54 50 45 42 40 37 34 33 31 30 30 28 25 21 17 16 18 17 13 7
212 215 214 209 206 205 204 206 210 213 214 218 222 226 231 237 241 245 243 225 212 207 211 216 213 174 127 108 97 75 55 41 31 28 27 24 27 42 53 42 34 39 46 53 57 57 58 63 67 67 63 61 61 60 58 56 54 52 49 46 46 47 46 48 50 51 50 47 45 44 42 39 36 33 31 31 32 30 28 24 23 24 24 22 18
213 214 212 209 208 207 208 211 213 213 212 216 220 226 233 236 237 241 239 226 214 206 205 208 203 167 141 123 107 75 51 40 30 26 27 25 29 55 68 56 46 47 54 59 62 62 63 67 69 69 66 65 64 62 61 59 56 54 51 47 46 46 45 45 47 49 49 46 43 41 41 41 40 37 33 32 33 33 33 31 29 28 27 26 26
214 212 209 209 208 209 211 213 213 212 212 217 223 229 234 235 237 239 236 226 216 206 198 195 194 181 172 155 113 62 41 35 25 22 26 29 39 66 73 64 57 55 58 63 65 67 68 70 72 72 68 67 68 66 64 63 61 58 54 50 47 45 44 43 44 47 49 49 46 43 41 40 40 40 38 37 36 35 36 35 34 33 31 29 29
210 209 209 208 209 210 211 212 212 212 214 219 225 230 234 237 239 240 236 227 217 207 198 191 190 200 220 211 106 12 24 26 19 19 26 36 52 72 77 72 68 64 62 65 70 73 73 75 76 74 70 69 70 68 65 64 63 61 57 53 49 46 44 43 44 46 48 49 49 46 44 42 40 38 37 38 39 39 39 39 37 38 37 34 33
207 207 209 208 209 209 209 211 212 213 217 223 226 230 235 239 240 238 233 226 217 209 200 194 193 208 231 231 250 303 343 8 10 17 28 40 61 80 88 85 79 72 67 69 76 79 79 79 78 74 70 69 69 66 63 61 61 61 58 53 50 48 46 45 45 46 47 48 48 45 43 42 41 39 35 34 36 38 40 41 40 39 39 38 35
205 207 208 207 208 208 209 212 214 215 221 225 227 231 236 239 237 232 226 220 216 212 204 197 196 208 233 239 246 274 301 338 359 14 34 50 68 93 102 95 87 80 76 79 83 84 82 79 76 72 68 67 67 64 60 57 57 58 56 51 47 45 45 45 44 45 46 47 47 45 44 42 41 41 39 37 37 37 37 39 41 41 40 39 36
203 205 207 206 207 209 211 213 215 218 223 226 230 234 238 235 228 222 218 215 213 212 207 202 202 212 229 238 243 261 277 306 340 3 55 92 103 114 111 101 94 91 89 90 92 89 84 79 74 72 69 66 65 63 59 54 52 54 53 49 44 42 41 42 42 43 44 46 47 46 45 43 40 39 37 36 37 38 38 39 42 43 42 41 39
204 204 205 206 207 210 213 214 216 220 224 228 234 240 238 229 219 213 212 211 208 207 206 206 211 221 231 236 240 252 264 283 312 329 134 150 158 141 125 118 109 102 98 97 98 93 85 79 74 71 68 66 63 60 57 53 49 49 49 47 44 42 40 40 41 40 41 44 46 45 44 43 40 37 35 35 36 37 38 40 43 45 45 45 42
206 205 206 207 209 213 216 217 219 222 226 232 239 240 231 220 212 208 208 208 206 205 206 209 216 226 235 239 241 248 254 267 284 262 167 164 177 163 142 134 123 116 112 105 102 96 87 81 75 71 69 66 62 58 54 49 45 44 44 44 44 43 41 40 41 40 39 41 44 44 44 44 42 39 38 38 37 36 36 38 40 42 43 44 43
208 209 208 208 211 215 217 218 221 224 229 236 238 231 222 214 208 205 205 205 204 205 209 213 218 227 236 240 243 247 248 254 261 233 183 172 181 173 154 141 133 129 126 115 106 98 90 84 77 71 70 68 61 57 52 45 41 39 39 41 43 44 44 42 42 41 40 42 44 44 45 44 43 42 41 39 38 37 37 38 39 40 40 41 40
209 211 208 209 212 215 218 220 222 226 232 237 234 224 216 211 206 204 204 203 203 206 212 216 222 230 235 236 236 239 243 247 245 223 194 182 183 176 159 149 145 141 134 122 108 96 88 85 80 71 70 68 60 53 47 40 37 36 37 39 40 42 45 44 44 43 41 41 43 45 46 44 43 42 40 38 39 39 39 39 40 42 43 41 39
211 211 207 211 216 218 221 223 224 228 233 238 233 223 215 210 206 203 202 202 205 209 213 217 226 233 232 229 231 233 238 240 234 219 197 182 182 178 166 157 153 148 137 121 105 93 86 84 82 75 69 67 58 47 39 35 32 32 35 39 40 42 45 45 45 44 42 42 43 45 46 45 43 43 40 37 37 38 39 41 42 44 45 43 41
209 211 209 213 218 219 221 225 228 231 235 239 233 222 214 207 203 202 201 203 207 212 217 223 229 230 225 223 226 230 234 234 228 216 195 180 178 176 169 163 159 151 135 117 103 93 86 81 85 84 75 66 55 39 30 29 29 28 33 40 41 42 46 47 46 45 43 43 44 45 46 46 45 45 42 40 38 38 39 40 41 44 45 45 43
207 208 210 216 219 220 222 225 228 232 237 239 227 216 211 205 200 200 201 205 212 216 223 229 226 221 218 218 222 226 227 227 222 209 190 179 176 172 169 169 165 152 134 119 108 100 93 87 93 100 95 76 57 36 24 23 24 24 30 38 42 42 44 46 46 46 44 44 44 46 47 47 46 45 44 43 42 40 41 42 42 44 46 47 46
207 203 209 219 222 221 222 223 226 231 238 235 219 210 208 203 200 200 202 206 214 218 221 222 217 214 215 216 219 221 222 221 215 201 184 177 174 169 168 172 167 155 139 126 118 115 115 112 115 128 132 109 68 39 23 18 17 21 27 34 40 42 43 43 44 44 44 44 44 45 46 46 44 42 41 42 43 41 40 41 42 42 43 44 44
206 203 211 223 224 223 223 221 221 227 232 223 212 208 206 203 202 204 206 209 213 214 213 210 210 213 217 216 215 216 219 216 205 190 179 174 171 168 169 171 166 157 148 138 133 128 124 125 133 146 155 144 89 48 29 13 10 16 23 28 35 41 42 41 39 39 41 44 44 45 46 45 42 40 38 38 40 38 36 38 39 38 40 42 42
205 208 218 225 225 225 223 217 217 224 224 213 209 209 209 208 208 208 211 215 217 214 210 207 207 210 212 214 213 212 217 213 196 182 175 170 167 169 172 170 163 159 157 152 147 140 129 131 140 151 168 174 107 54 35 9 3 12 19 22 28 37 40 38 36 34 36 41 44 45 45 43 41 39 36 35 37 36 36 39 39 37 39 40 40
208 215 224 224 222 222 221 218 221 228 221 209 208 210 209 209 211 211 211 217 221 218 212 208 207 205 202 206 207 206 212 209 192 178 174 170 167 170 172 168 162 166 169 167 164 155 143 146 151 157 173 184 123 47 16 356 359 10 17 19 24 32 35 34 33 32 32 37 44 45 44 42 39 36 34 34 35 36 38 40 40 40 41 41 38
212 216 221 220 219 221 223 224 227 225 212 205 205 206 205 206 208 209 209 211 217 219 213 208 207 205 201 201 202 200 207 207 192 177 172 172 170 170 172 170 166 171 181 182 183 175 169 170 174 178 185 185 187 225 289 325 348 8 14 18 24 29 30 29 29 29 28 30 38 40 40 38 36 34 33 32 34 37 38 39 40 41 42 42 40
212 212 216 219 221 222 222 222 221 213 207 206 206 204 202 203 207 208 209 211 214 217 213 207 205 206 204 202 201 197 198 202 195 180 173 173 173 174 177 178 172 177 194 199 193 180 173 170 174 181 183 184 197 217 242 282 323 357 9 17 25 27 24 22 23 24 23 25 32 35 36 36 35 33 32 32 34 36 37 38 40 41 41 41 40
210 209 215 221 221 218 216 215 210 203 203 208 209 204 199 201 206 208 211 215 218 218 214 208 205 205 205 202 199 194 191 194 194 185 177 174 175 180 184 186 185 187 196 206 203 181 171 171 175 176 171 167 180 200 221 250 305 350 4 22 31 25 18 17 19 20 19 23 29 32 33 35 34 33 32 31 33 35 36 37 39 40 40 39 38
210 209 213 217 218 217 215 210 205 203 204 207 208 203 196 198 205 208 211 216 219 218 214 210 207 206 205 202 197 194 190 188 188 187 184 180 181 187 190 192 196 199 202 213 220 205 190 184 184 177 163 154 154 161 179 191 34 8 13 35 38 24 13 15 19 17 15 19 25 28 29 30 30 30 31 31 32 34 34 35 37 38 38 38 38
209 210 210 211 217 220 212 198 198 212 210 206 204 201 196 199 205 208 210 215 219 220 216 212 210 209 208 205 200 196 193 190 185 184 185 186 189 194 197 198 201 206 214 223 232 233 218 185 165 159 152 145 140 134 127 113 77 33 29 43 42 25 13 15 23 25 20 16 19 23 25 24 22 23 26 29 31 31 32 33 35 36 36 36 36
206 210 211 212 219 217 202 191 203 216 212 206 204 202 199 200 204 208 210 214 220 223 219 214 212 212 212 211 207 201 197 193 188 183 183 188 193 196 199 203 207 212 221 227 232 238 234 197 147 137 136 132 128 121 114 106 98 63 45 44 37 23 15 20 32 35 25 17 17 20 20 18 17 17 19 23 26 27 29 31 33 36 35 34 34
203 208 211 216 218 211 199 197 210 215 211 207 206 205 203 203 206 211 215 217 221 224 222 217 215 214 215 214 212 207 202 197 192 189 189 192 195 198 201 203 207 215 222 226 229 236 240 227 165 135 129 126 120 115 109 107 103 81 59 50 35 18 15 29 42 39 28 19 16 17 16 15 13 12 13 15 18 21 25 26 27 33 35 33 33
209 211 214 217 216 210 204 204 209 210 208 205 203 202 204 208 212 215 218 223 226 225 222 218 216 217 218 215 213 211 208 203 198 197 198 199 199 202 205 203 207 217 221 222 229 236 241 236 191 150 139 135 129 122 117 117 109 93 78 59 39 16 15 34 44 38 27 16 10 11 11 9 7 6 7 9 9 12 17 19 18 21 26 27 30
215 217 219 218 215 212 210 209 207 204 203 204 203 202 205 210 216 220 225 236 241 236 227 221 218 219 222 220 215 212 211 210 207 205 207 207 206 208 208 204 208 217 222 226 231 235 238 234 213 177 157 150 149 148 147 145 129 107 98 71 36 4 1 18 31 31 21 9 3 3 1 359 359 0 2 5 5 6 9 11 10 12 14 17 21
216 220 221 220 218 216 211 210 209 205 203 206 208 208 209 212 214 219 230 247 254 248 236 228 225 225 227 226 222 218 217 216 214 212 214 216 216 216 215 209 210 218 226 231 235 238 239 236 227 207 185 172 171 177 184 197 205 208 230 272 309 329 339 351 6 15 11 2 359 357 352 349 351 354 358 0 2 4 5 5 6 7 8 10 14
219 221 220 219 220 219 210 206 209 209 209 210 211 211 214 215 215 219 230 245 252 245 232 229 231 233 232 230 228 228 230 229 224 218 217 220 221 222 221 217 217 222 229 233 236 238 240 238 235 228 217 208 202 200 206 220 230 244 259 269 285 303 317 329 338 345 347 346 350 351 348 346 346 347 351 355 358 1 3 3 4 3 3 7 11
222 222 221 220 222 220 212 208 210 212 212 213 214 215 215 214 215 220 229 238 242 235 222 216 217 223 229 230 229 228 228 229 228 226 225 224 223 222 219 216 218 224 231 235 237 239 240 239 238 236 232 228 226 222 224 230 239 250 259 267 281 292 301 309 315 317 318 323 332 337 340 343 343 342 345 348 351 355 357 359 1 1 1 4 7
227 226 223 221 220 220 215 212 212 212 211 212 218 219 216 212 211 215 222 229 229 225 219 212 206 206 213 220 223 223 222 222 225 228 230 229 227 225 222 218 219 225 230 233 236 238 239 238 236 235 236 237 238 238 238 241 247 254 258 264 274 282 288 295 298 303 308 311 317 324 330 335 337 338 340 341 343 346 349 352 355 356 358 0 2
231 229 226 220 215 214 214 213 213 213 212 214 222 224 219 215 215 218 225 229 225 217 213 208 202 199 202 209 215 217 220 225 227 227 230 231 228 225 221 219 220 225 229 232 236 237 238 238 236 234 235 240 243 244 244 247 254 260 263 266 270 275 280 285 288 293 300 303 308 316 321 325 329 332 335 337 338 339 342 347 349 349 351 354 355
235 235 231 221 211 210 212 213 214 217 216 217 226 231 225 220 221 228 235 235 229 219 210 203 198 195 196 202 207 207 211 220 227 229 229 228 225 222 220 220 223 227 230 234 237 237 238 240 239 237 236 237 240 244 246 248 255 262 265 268 272 273 277 280 282 287 292 296 301 308 313 317 320 322 326 330 332 333 336 341 344 344 345 348 350
238 236 231 221 215 216 220 219 219 222 222 219 222 229 227 222 222 232 243 245 240 229 217 205 198 194 192 194 197 197 199 206 215 222 225 224 222 221 221 222 226 230 234 237 238 238 238 239 240 241 241 240 240 244 248 251 256 262 265 268 271 273 275 278 280 284 288 291 296 302 307 310 312 314 317 321 325 328 330 333 336 340 341 343 346
233 230 225 220 219 223 229 227 224 226 229 229 228 228 225 221 223 232 241 244 242 233 220 207 199 194 190 189 190 191 193 195 199 206 214 219 223 225 227 230 233 236 239 240 240 239 238 237 239 242 246 247 248 248 249 253 256 261 265 268 271 274 276 278 280 282 285 289 294 298 301 303 305 307 309 312 316 320 324 327 330 333 335 336 339
232 228 224 222 223 225 229 232 231 230 232 235 235 231 225 222 223 230 237 239 235 228 219 208 200 195 192 190 188 188 191 192 194 199 207 215 222 228 234 239 242 243 242 242 242 241 239 238 241 245 247 250 252 251 252 256 257 259 264 269 272 276 278 278 280 283 286 288 291 292 293 295 297 298 301 305 309 312 315 319 323 325 328 330 331
243 236 231 230 229 228 229 231 234 236 236 235 233 231 227 224 224 229 236 237 232 225 216 208 202 199 196 193 190 189 191 195 199 206 213 220 226 233 239 243 244 244 243 242 242 242 241 241 245 248 251 252 253 254 256 259 260 262 266 269 271 274 276 277 280 283 284 287 288 288 288 289 290 292 294 297 300 304 306 308 312 315 318 320 321
244 241 238 236 234 232 231 231 234 238 238 235 232 229 227 226 228 232 236 236 232 226 217 210 207 204 200 198 196 195 197 203 209 215 223 230 237 243 246 246 244 242 240 240 239 240 242 244 247 250 252 253 254 256 259 262 264 267 269 270 270 271 273 275 279 282 284 286 287 287 288 289 288 288 290 293 295 297 297 298 302 305 307 309 310
246 242 239 236 235 234 232 230 232 237 238 237 234 229 226 229 235 239 239 236 232 227 220 214 212 212 210 209 210 210 212 218 222 225 230 238 246 252 252 249 245 241 239 238 237 237 241 246 248 251 253 255 256 258 260 263 268 272 273 273 272 272 273 276 281 285 287 289 289 288 288 290 289 287 288 290 291 291 291 291 294 296 298 300 300
253 246 241 239 237 235 230 225 228 238 242 238 232 225 223 231 238 240 239 237 234 230 223 218 219 222 224 225 225 227 230 235 239 239 242 248 254 259 260 256 248 243 240 239 237 237 240 246 249 252 253 254 257 259 261 264 269 274 276 277 276 277 279 281 285 289 292 292 291 289 288 288 288 288 289 290 290 289 288 288 289 289 291 293 294
254 248 244 243 241 239 232 225 227 240 249 239 227 222 225 235 240 239 238 237 234 230 225 222 225 229 231 230 231 233 235 239 244 247 250 253 257 263 265 260 252 246 244 243 241 239 241 246 250 252 253 255 258 262 265 268 271 274 278 280 280 281 283 286 289 293 295 295 294 293 291 288 287 286 287 288 288 288 287 286 286 286 287 288 289
255 249 247 246 247 246 239 229 229 242 253 244 231 227 231 239 243 240 237 236 234 231 227 227 230 233 232 232 235 237 238 241 244 247 250 253 258 264 265 261 254 249 247 246 244 242 242 246 249 251 253 256 258 262 266 270 272 274 278 281 281 281 283 286 289 293 296 298 298 296 293 290 288 287 287 287 287 287 286 285 284 284 285 285 285
257 250 245 246 249 249 242 234 233 242 250 245 235 230 231 235 236 230 223 224 228 230 230 232 236 238 239 239 242 244 246 247 249 251 253 257 263 267 266 260 254 251 250 249 246 243 243 245 249 253 256 258 260 263 266 269 269 271 275 278 279 280 281 282 287 292 296 298 299 300 299 297 294 290 289 288 288 287 285 283 283 284 283 283 282
258 250 246 247 250 250 244 239 238 241 244 239 230 225 225 226 223 215 211 216 226 233 239 245 250 252 252 251 250 251 253 255 257 258 260 263 268 270 266 258 252 250 250 250 248 244 243 244 249 254 257 260 263 267 269 270 271 272 274 277 278 279 280 281 284 288 289 291 294 299 302 302 301 298 296 293 290 288 285 284 283 283 282 282 283
257 250 245 245 248 251 247 241 237 238 238 231 222 219 219 213 205 201 206 217 227 235 244 254 260 261 259 256 254 254 255 257 258 259 261 264 267 268 263 255 250 249 250 250 248 246 245 246 250 254 258 262 266 269 271 272 271 271 273 275 276 278 280 280 281 282 284 287 291 294 295 297 299 300 300 298 296 293 290 287 285 283 282 282 282
253 249 245 243 245 247 244 239 238 237 231 219 211 211 209 200 196 201 211 216 216 219 232 252 262 262 258 254 252 254 256 257 257 256 256 257 259 258 254 251 250 250 252 252 251 251 251 252 255 258 261 264 268 270 270 270 270 269 271 274 276 277 278 278 278 281 284 287 290 291 292 293 294 296 298 298 298 297 295 293 291 289 286 284 283
249 245 242 239 236 235 236 239 241 235 223 210 203 200 192 187 189 195 193 189 187 191 209 231 240 240 239 240 244 250 255 256 254 251 249 248 246 245 248 251 253 255 258 258 257 258 260 261 263 265 266 268 270 271 270 269 270 272 274 275 276 277 277 278 279 282 284 285 286 287 288 289 290 291 293 295 296 297 297 297 295 293 289 286 285
247 242 237 233 228 226 228 234 236 227 213 201 193 185 178 177 180 178 174 176 184 189 191 190 182 172 169 180 198 226 256 263 254 242 235 233 232 233 237 243 248 251 256 260 262 266 269 270 271 272 273 274 274 272 269 268 270 273 275 274 274 275 275 276 278 280 281 283 284 284 284 285 286 286 287 288 290 292 293 294 294 292 290 287 285
243 237 232 227 223 219 216 215 215 210 200 190 183 179 177 175 172 171 176 189 187 172 168 166 159 151 148 149 155 170 272 314 271 206 200 204 214 222 230 240 246 250 257 264 268 271 273 274 276 277 279 279 279 275 270 266 267 269 270 272 273 275 277 278 280 282 282 283 284 284 284 284 284 284 284 284 285 285 285 286 288 288 287 286 284
226 218 211 209 209 206 199 194 196 196 191 183 178 177 174 170 167 170 179 177 165 161 162 159 153 151 153 161 180 213 232 234 235 228 224 232 241 245 249 255 258 259 262 266 269 272 275 275 275 276 275 275 276 275 273 270 270 271 273 275 277 279 280 282 282 282 282 283 283 284 284 284 284 284 283 283 282 281 281 281 282 282 282 282 281